Location: ??????????
(42.1626°N, 44.1160°E)
Time: 02:37:04
(UTC+00:00)

FENGYUN 1C DEB - Pass Details

Date: 26 September 2021
Orbit: 836 x 1129 km, 99.1° (Epoch: 18 October)

Event Time Altitude Azimuth Distance (km) Brightness Sun altitude
Exits shadow 00:07:15 11° 333° (NNW) 2,414 ? -30.7°
Drops below altitude 10° 00:07:26 10° 334° (NNW) 2,480 ? -30.6°
Sets 00:09:51 0° 340° (NNW) 3,400 ? -30.2°
